Location: Bishopstone
(51.0167°N, 1.9000°W)
Time: 20:07:29
(UTC+00:00)

MetOp-A - Pass Details

Date: 16 September 2019
Orbit: 820 x 821 km, 98.6° (Epoch: 17 October)

Event Time Altitude Azimuth Distance (km) Brightness Sun altitude
Exits shadow 20:18:46 23° 161° (SSE) 1,673 5.3 -18.6°
Maximum altitude 20:22:11 87° 73° (ENE) 830 4.1 -19.0°
Drops below altitude 10° 20:27:35 10° 346° (NNW) 2,430 7.2 -19.8°
Sets 20:29:57 0° 346° (NNW) 3,367 8.0 -20.1°
